TimeCST,TemperatureF,Dew PointF,Humidity,Sea Level PressureIn,VisibilityMPH,Wind Direction,Wind SpeedMPH,Gust SpeedMPH,PrecipitationIn,Events,Conditions,WindDirDegrees,DateUTC
12:53 AM,23.0,10.9,60,29.99,10.0,South,9.2,-,N/A,,Clear,190,2013-01-16 06:53:00
1:53 AM,23.0,10.9,60,29.97,10.0,South,11.5,-,N/A,,Scattered Clouds,180,2013-01-16 07:53:00
2:53 AM,21.9,10.9,63,29.93,10.0,South,11.5,-,N/A,,Clear,170,2013-01-16 08:53:00
3:53 AM,24.1,12.0,60,29.88,10.0,South,13.8,-,N/A,,Clear,180,2013-01-16 09:53:00
4:53 AM,24.1,12.9,62,29.83,10.0,SSW,15.0,20.7,N/A,,Overcast,200,2013-01-16 10:53:00
5:53 AM,25.0,12.9,60,29.80,10.0,South,16.1,25.3,N/A,,Overcast,190,2013-01-16 11:53:00
6:53 AM,26.1,15.1,63,29.80,10.0,South,9.2,20.7,N/A,,Overcast,190,2013-01-16 12:53:00
7:53 AM,26.1,19.0,75,29.81,5.0,SSW,12.7,-,0.00,Snow,Light Snow,200,2013-01-16 13:53:00
8:31 AM,26.6,19.4,74,29.76,1.8,SSW,9.2,-,0.00,Snow,Light Snow,210,2013-01-16 14:31:00
8:40 AM,26.6,19.4,74,29.77,2.5,SW,13.8,-,0.00,Snow,Light Snow,220,2013-01-16 14:40:00
8:48 AM,26.6,21.2,80,29.76,3.0,SSW,12.7,-,0.00,Snow,Light Snow,210,2013-01-16 14:48:00
8:53 AM,26.1,21.0,81,29.81,4.0,SW,11.5,-,0.00,Snow,Light Snow,220,2013-01-16 14:53:00
9:53 AM,28.0,21.0,75,29.81,10.0,SSW,10.4,-,0.00,,Overcast,210,2013-01-16 15:53:00
10:53 AM,30.0,23.0,75,29.82,9.0,SW,5.8,-,0.00,,Overcast,230,2013-01-16 16:53:00
11:48 AM,30.2,24.8,80,29.75,10.0,WSW,10.4,-,N/A,,Overcast,240,2013-01-16 17:48:00
11:53 AM,30.9,25.0,79,29.80,10.0,SW,8.1,-,N/A,,Overcast,230,2013-01-16 17:53:00
12:53 PM,32.0,27.0,82,29.80,10.0,WSW,3.5,-,N/A,,Overcast,240,2013-01-16 18:53:00
1:11 PM,33.8,28.4,81,29.76,10.0,SW,4.6,-,N/A,,Overcast,230,2013-01-16 19:11:00
1:53 PM,36.0,28.0,73,29.80,10.0,SW,3.5,-,N/A,,Overcast,230,2013-01-16 19:53:00
2:39 PM,39.2,28.4,65,29.77,10.0,NW,6.9,-,N/A,,Mostly Cloudy,310,2013-01-16 20:39:00
2:53 PM,39.0,28.9,67,29.81,10.0,NNW,6.9,-,N/A,,Mostly Cloudy,330,2013-01-16 20:53:00
3:53 PM,37.9,28.9,70,29.85,10.0,NW,17.3,-,N/A,,Overcast,320,2013-01-16 21:53:00
4:53 PM,36.0,28.9,76,29.92,10.0,NW,11.5,-,N/A,,Overcast,310,2013-01-16 22:53:00
5:07 PM,35.6,28.4,75,29.88,10.0,NW,13.8,-,N/A,,Overcast,320,2013-01-16 23:07:00
5:53 PM,34.0,28.0,79,29.96,10.0,NW,15.0,-,N/A,,Overcast,310,2013-01-16 23:53:00
6:53 PM,33.1,24.1,70,30.02,10.0,NNW,16.1,-,N/A,,Overcast,330,2013-01-17 00:53:00
7:11 PM,30.2,23.0,75,29.99,10.0,NNW,10.4,-,N/A,,Scattered Clouds,330,2013-01-17 01:11:00
7:53 PM,30.0,19.9,66,30.05,10.0,NNW,15.0,-,N/A,,Clear,340,2013-01-17 01:53:00
8:53 PM,28.0,19.9,72,30.11,10.0,NNW,10.4,-,N/A,,Partly Cloudy,330,2013-01-17 02:53:00
9:53 PM,26.1,12.0,55,30.14,10.0,NW,12.7,-,N/A,,Clear,320,2013-01-17 03:53:00
10:53 PM,24.1,9.0,53,30.16,10.0,NNW,10.4,-,N/A,,Clear,340,2013-01-17 04:53:00
11:53 PM,21.9,8.1,55,30.19,10.0,NNW,11.5,-,N/A,,Clear,340,2013-01-17 05:53:00